Regional Weather Roundup
Issued by NWS

Home | Current Version | Previous Version | Text Only | Print | Product List | Glossary Off
Versions: 1 2 3 4 5 6 7 8 9 10 11 12 13 14 15 16 17 18 19 20 21 22 23 24 25 26 27 28 29 30 31 32 33 34 35 36 37 38 39 40 41 42 43 44 45 46 47 48 49 50

797
ASUS43 KDTX 161510
RWRMI
MICHIGAN HOURLY REGIONAL WEATHER ROUNDUP
NATIONAL WEATHER SERVICE DETROIT/PONTIAC MI
1000 AM EST SAT DEC 16 2017

NOTE: "FAIR" INDICATES FEW OR NO CLOUDS BELOW 12,000 FEET WITH NO
SIGNIFICANT WEATHER AND/OR OBSTRUCTION TO VISIBILITY.

MIZ047>049-052>055-059>063-066>070-074>076-081>083-161600-
SOUTHEAST LOWER MICHIGAN

CITY           SKY/WX    TMP DP  RH WIND       PRES   REMARKS
ALMA           CLOUDY    23  21  93 E7        29.97R FOG     WCI  14
ANN ARBOR      CLOUDY    31  25  78 S5        29.94R WCI  26
BAD AXE        LGT SNOW  22  19  91 CALM      29.98R
CARO           LGT SNOW  22  19  90 CALM      29.97R
DETROIT CITY   CLOUDY    28  25  88 NE6       29.97R FOG     WCI  22
DETROIT        CLOUDY    36  25  64 SW12      29.96R WCI  28
FLINT          LGT SNOW  23  20  88 E7        29.98R FOG     WCI  15
GROSSE ILE     CLOUDY    34  26  70 SW5       29.95R WCI  30
HILLSDALE      CLOUDY    32  27  80 SW5       29.91R WCI  27
HOWELL         LGT SNOW  25  24  94 NE5       29.94R WCI  20

CITY           SKY/WX    TMP DP  RH WIND       PRES   REMARKS
JACKSON        CLOUDY    34  25  69 SW9       29.92R WCI  27
LAMBERTVILLE   CLOUDY    35  26  71 SW5       29.96R WCI  31
LANSING        CLOUDY    24  22  91 NE8       29.96R WCI  15
LAPEER         LGT SNOW  23  20  88 NE3       29.98R
MASON          LGT SNOW  27  23  84 NE6       29.94R WCI  21
MONROE         CLOUDY    34  25  68 SW10      29.95R WCI  26
MT. CLEMENS    LGT SNOW  25  25 100 N8        29.97R FOG     WCI  16
PONTIAC        LGT SNOW  24  23  96 NE6       29.94R FOG     WCI  17
PORT HOPE        N/A     27  16  63 N6        29.96R WCI  20
PORT HURON     LGT SNOW  23  19  86 N5        29.98R WCI  17
TRI CITIES     LGT SNOW  22  19  89 NE5       29.99R FOG     WCI  16
MIDLAND        FLURRIES  23  20  88 CALM      29.98R
TROY           LGT SNOW  27  24  91 NE6       29.99R WCI  20
SAGINAW HB     LGT SNOW  23  21  93 CALM      29.99R
$$
MIZ043>046-050>051-056>058-064>065-071>073-077>080-161600-
SOUTHWEST LOWER MICHIGAN

CITY           SKY/WX    TMP DP  RH WIND       PRES   REMARKS
BATTLE CREEK   CLOUDY    33  26  75 SW6       29.91R WCI  28
BENTON HARBOR  CLOUDY    38  27  64 SW12      29.90R WCI  30
BIG RAPIDS     CLOUDY    21  18  87 E6        29.93R WCI  13
COLDWATER      CLOUDY    35  26  71 SW7       29.92R WCI  29
HOLLAND        CLOUDY    29  26  89 NE8       29.91R WCI  21
GRAND RAPIDS   FLURRIES  25  21  85 E14       29.93R WCI  13
IONIA          FLURRIES  24  21  89 NE9       29.95R WCI  14
KALAMAZOO      CLOUDY    34  26  72 SW6       29.92R WCI  29
LUDINGTON      CLOUDY    22  17  82 E8        29.93R WCI  13
MARSHALL       CLOUDY    33  25  72 SW5       29.91R WCI  29
MOUNT PLEASANT LGT SNOW  23  19  87 E5        29.96R WCI  16
MUSKEGON       FLURRIES  26  20  77 E12       29.92R WCI  16
SOUTH HAVEN    CLOUDY    37  27  68 CALM      29.90R
$$
MIZ016>042-161600-
NORTHERN LOWER MICHIGAN

CITY           SKY/WX    TMP DP  RH WIND       PRES   REMARKS
ALPENA         FLURRIES  16  12  84 N14       30.02R WCI   2
BEAVER ISLAND  LGT SNOW  15  12  85 E10       30.02R WCI   3
BELLAIRE       CLOUDY    16  12  86 NE6       30.00R WCI   7
CADILLAC       CLOUDY    19  15  84 E7        29.91R WCI  10
CHARLEVOIX     MOSUNNY   14   9  81 E12       30.04R WCI   0
FRANKFORT      CLOUDY    24  16  71 CALM      29.96R
GAYLORD        CLOUDY    11   7  84 NE9       29.95R FOG     WCI  -2
GRAYLING       CLOUDY    15  11  82 NE10      29.96R WCI   3
HARBOR SPRINGS LGT SNOW  11   6  81 NE8       30.01R WCI  -1
HOUGHTON LAKE  CLOUDY    17  12  80 NE9       29.95R WCI   6
MANISTEE       CLOUDY    21  17  84 E6        29.95R WCI  13
OSCODA         CLOUDY    18  12  77 N10       29.99R WCI   6
PELLSTON       LGT SNOW  12   7  80 NE10      30.03R WCI  -1
ROGERS CITY    CLOUDY    14   9  79 NE7       30.05R WCI   4
TRAVERSE CITY  CLOUDY    21  14  74 E6        29.97R WCI  13
$$
MIZ007>008-015-161600-
EASTERN UPPER MICHIGAN

CITY           SKY/WX    TMP DP  RH WIND       PRES   REMARKS
KINROSS        CLOUDY    -1  -9  68 NE12      30.05R WCI -18
MACKINAC ISLAN CLOUDY     7   1  76 NE12      30.04R WCI  -9
NEWBERRY       CLOUDY     8   7  94 NE9       30.02R WCI  -5
S. S. MARIE    CLOUDY    -1 -11  62 VRB6      30.07R WCI -13
MUNISING         N/A     13  10  88 SE9       30.01R WCI   1
$$
MIZ004>006-011>014-085-161600-
CENTRAL UPPER MICHIGAN

CITY           SKY/WX    TMP DP  RH WIND       PRES   REMARKS
MANISTIQUE     CLOUDY    11   5  76 NE8       30.03R WCI  -1
ESCANABA       CLOUDY    12   8  84 NE7       30.01R WCI   1
MENOMINEE      CLOUDY    17  10  74 N6        29.98  WCI   9
SAWYER-GWINN   MOSUNNY    7   5  92 SE3       29.96R
$$
MIZ001>003-009>011-084-161600-
WESTERN UPPER MICHIGAN

CITY           SKY/WX    TMP DP  RH WIND       PRES   REMARKS
IRON MOUNTAIN  CLOUDY     9   5  84 CALM      29.93R
HOUGHTON       CLOUDY    15   6  67 NE9       29.94R WCI   3
COPPER HARBOR    N/A     17   9  70 SW5       30.00R WCI  10
IRONWOOD       CLOUDY    14   8  77 E9        29.92R WCI   2
$$

ABBREVIATIONS USED IN REMARKS
   TC - TEMPERATURE IN CELSIUS
  WCI - WIND CHILL INDEX
   HX - HEAT INDEX
  VSB - VISIBILITY





USA.gov is the U.S. government's official web portal to all federal, state and local government web resources and services.